Вернуться в каталог

STARLINK-11743

АктивенСвязьVLEO
NORAD 64379·PAYLOAD·🇺🇸 United States

Запущен Jun 13, 2025 с Cape Canaveral Space Force Station

Loading…

Ближайшие Пролёты (ближайшие 24 часа)

TLE

СвежийSource: CelesTrak SupGP

Эпоха: Sep 14, 2026, 23:06 UTC

1 64379C 25127K   26257.96298611  .00003582  00000+0  27799-4 0  2572
2 64379  43.0010  24.0145 0001757 270.6251 180.4691 15.70853630    16

Отслеживайте STARLINK-11743 в реальном времени с AllMySat

Download on the App Store